FW5431 Weather Reports


Display with metric or nautical units.
time (UTC)temp
F
wind
direction
speed
MPH
gust
MPH
rain 1hr
in
rain 24hr
in
rain mn
in
humidity
%
barometer
mb
20260507233058 74 28 2.0 4.0 0.00 0.00 0.00 88 1007.7
20260507231600 74 354 1.0 5.0 0.00 0.00 0.00 88 1007.7
20260507230101 74 41 0.0 3.0 0.00 0.00 0.00 88 1007.5
20260507230001 74 41 0.0 3.0 0.00 0.00 0.00 88 1007.5
20260507224605 75 23 2.0 5.0 0.00 0.00 0.00 88 1007.5
20260507223100 75 30 1.0 3.0 0.00 0.00 0.00 88 1007.5
20260507221558 75 24 0.0 2.0 0.00 0.00 0.00 88 1007.4
20260507220058 75 27 1.0 3.0 0.00 0.00 0.00 87 1007.2
20260507220001 75 27 1.0 3.0 0.00 0.00 0.00 87 1007.2
20260507214559 75 27 1.0 3.0 0.00 0.00 0.00 87 1007.0
20260507213058 75 26 2.0 4.0 0.00 0.00 0.00 87 1006.9
20260507211558 75 51 1.0 4.0 0.00 0.00 0.00 87 1006.7
20260507210120 76 41 2.0 5.0 0.00 0.00 0.00 87 1006.6
20260507210010 76 25 3.0 5.0 0.00 0.00 0.00 87 1006.6
20260507204606 76 8 2.0 6.0 0.00 0.00 0.00 87 1006.5
20260507203107 76 32 3.0 5.0 0.00 0.00 0.00 86 1006.3
20260507201603 77 38 3.0 7.0 0.00 0.00 0.00 86 1006.2
20260507200107 77 23 2.0 6.0 0.00 0.00 0.00 85 1006.1
20260507200006 78 26 2.0 7.0 0.00 0.00 0.00 85 1006.1
20260507194558 78 34 5.0 9.0 0.00 0.00 0.00 84 1005.9
20260507193131 79 39 5.0 10.0 0.00 0.00 0.00 83 1006.1
20260507191601 80 20 3.0 8.0 0.00 0.00 0.00 82 1006.1
20260507190058 80 72 3.0 11.0 0.00 0.00 0.00 82 1006.1
20260507190002 80 79 2.0 11.0 0.00 0.00 0.00 82 1006.1
20260507184559 81 72 5.0 8.0 0.00 0.00 0.00 80 1006.1
20260507183105 81 66 3.0 12.0 0.00 0.00 0.00 80 1006.2
20260507181558 82 121 6.0 8.0 0.00 0.00 0.00 78 1006.3
20260507180059 82 53 4.0 8.0 0.00 0.00 0.00 79 1006.5
20260507180002 82 102 5.0 8.0 0.00 0.00 0.00 79 1006.5
20260507174608 82 89 2.0 7.0 0.00 0.00 0.00 78 1006.7
20260507173133 82 25 1.0 7.0 0.00 0.00 0.00 79 1006.8
20260507171602 82 39 4.0 8.0 0.00 0.00 0.00 77 1007.0
20260507170058 82 62 1.0 5.0 0.00 0.00 0.00 78 1007.1
20260507170000 82 58 1.0 6.0 0.00 0.00 0.00 79 1007.1
20260507164608 81 41 3.0 6.0 0.00 0.00 0.00 78 1007.5
20260507163058 81 25 3.0 6.0 0.00 0.00 0.00 78 1008.0
20260507161610 81 78 2.0 7.0 0.00 0.00 0.00 78 1008.3
20260507160116 80 57 2.0 6.0 0.00 0.00 0.00 78 1008.7
20260507160002 80 119 3.0 6.0 0.00 0.00 0.00 78 1008.7
20260507154558 80 275 0.0 4.0 0.00 0.00 0.00 78 1009.2
20260507153101 79 70 2.0 4.0 0.00 0.00 0.00 79 1009.7
20260507151558 79 41 3.0 5.0 0.00 0.00 0.00 79 1010.1
20260507150058 79 203 1.0 5.0 0.00 0.00 0.00 80 1010.5
20260507150002 79 198 1.0 5.0 0.00 0.00 0.00 79 1010.5
20260507144605 78 63 0.0 3.0 0.00 0.00 0.00 81 1010.9
20260507143101 77 56 1.0 4.0 0.00 0.00 0.00 82 1011.4
20260507141619 77 56 2.0 3.0 0.00 0.00 0.00 82 1011.7
20260507140109 77 98 0.0 2.0 0.00 0.00 0.00 82 1012.0
20260507140001 77 56 0.0 2.0 0.00 0.00 0.00 82 1012.0
20260507134608 76 53 1.0 3.0 0.00 0.00 0.00 83 1012.3
20260507133103 77 39 2.0 4.0 0.00 0.00 0.00 83 1012.5
20260507131601 76 92 0.0 2.0 0.00 0.00 0.00 84 1012.7
20260507130058 76 83 1.0 4.0 0.00 0.00 0.00 84 1012.9
20260507130003 76 65 2.0 4.0 0.00 0.00 0.00 84 1012.9
20260507124604 76 64 2.0 4.0 0.00 0.00 0.00 86 1013.1
20260507123057 75 360 0.0 3.0 0.00 0.00 0.00 88 1013.0
20260507121558 74 252 0.0 2.0 0.00 0.00 0.00 89 1013.1
20260507120059 74 261 0.0 2.0 0.00 0.00 0.00 89 1013.1
20260507120001 73 261 0.0 2.0 0.00 0.00 0.00 90 1013.1
20260507114603 73 257 0.0 3.0 0.00 0.00 0.00 91 1013.1
20260507113058 72 259 1.0 2.0 0.00 0.00 0.00 91 1013.2
20260507111602 72 262 0.0 2.0 0.00 0.00 0.00 92 1013.3
20260507110058 71 259 0.0 3.0 0.00 0.00 0.00 92 1013.2
20260507110002 71 259 0.0 3.0 0.00 0.00 0.00 92 1013.2
20260507104600 71 261 0.0 2.0 0.00 0.00 0.00 93 1013.2
20260507103057 71 262 0.0 2.0 0.00 0.00 0.00 93 1013.1
20260507101629 71 260 1.0 2.0 0.00 0.00 0.00 93 1013.1
20260507100057 71 260 0.0 3.0 0.00 0.00 0.00 93 1013.0
20260507100001 71 259 1.0 3.0 0.00 0.00 0.00 93 1013.0
20260507094558 71 257 0.0 0.0 0.00 0.00 0.00 93 1013.0
20260507093059 71 258 0.0 1.0 0.00 0.00 0.00 93 1012.8
20260507091558 71 257 0.0 1.0 0.00 0.00 0.00 93 1012.8
20260507090112 71 257 0.0 2.0 0.00 0.00 0.00 93 1012.9
20260507090002 71 257 0.0 2.0 0.00 0.00 0.00 93 1012.9
20260507084557 71 258 0.0 1.0 0.00 0.00 0.00 93 1012.7
20260507083058 71 258 0.0 2.0 0.00 0.00 0.00 93 1012.6
20260507081558 71 258 0.0 2.0 0.00 0.00 0.00 93 1012.7
20260507080058 71 258 0.0 2.0 0.00 0.00 0.00 93 1012.5
20260507080001 71 258 0.0 2.0 0.00 0.00 0.00 93 1012.5
20260507074600 71 259 0.0 2.0 0.00 0.00 0.00 93 1012.6
20260507073058 72 36 1.0 2.0 0.00 0.00 0.00 93 1012.8
20260507071606 72 36 0.0 0.0 0.00 0.00 0.00 93 1012.8
20260507070059 72 36 0.0 0.0 0.00 0.00 0.00 93 1012.9
20260507070000 72 36 0.0 0.0 0.00 0.00 0.00 93 1012.9
20260507064618 72 36 0.0 1.0 0.00 0.00 0.00 93 1013.0
20260507063058 72 36 0.0 1.0 0.00 0.00 0.00 93 1013.3
20260507061559 72 36 0.0 2.0 0.00 0.00 0.00 93 1013.4
20260507060059 72 36 0.0 1.0 0.00 0.00 0.00 93 1013.6
20260507060003 72 36 0.0 1.0 0.00 0.00 0.00 93 1013.6
20260507054608 72 36 0.0 2.0 0.00 0.00 0.00 93 1013.8
20260507053059 72 36 0.0 1.0 0.00 0.00 0.00 93 1013.9
20260507051558 72 36 0.0 2.0 0.00 0.00 0.00 93 1014.0
20260507050003 72 36 0.0 0.0 0.00 0.00 0.00 93 1014.3
20260507044558 72 36 0.0 1.0 0.00 0.00 0.00 93 1014.5
20260507043102 72 36 0.0 1.0 0.00 0.00 0.00 93 1014.9
20260507041610 72 36 0.0 2.0 0.00 0.00 0.00 93 1014.9
20260507040059 72 36 0.0 2.0 0.00 0.00 0.00 93 1014.8
20260507040001 72 36 0.0 2.0 0.00 0.00 0.00 93 1014.8
20260507034610 72 36 0.0 2.0 0.00 0.00 0.00 93 1014.9
20260507033059 72 36 0.0 4.0 0.00 0.00 0.00 93 1015.0
20260507031604 72 37 1.0 4.0 0.00 0.00 0.00 93 1015.0
20260507030104 72 21 1.0 2.0 0.00 0.00 0.00 93 1015.0
20260507030003 72 21 0.0 2.0 0.00 0.00 0.00 93 1015.0
20260507024607 72 21 0.0 1.0 0.00 0.00 0.00 93 1015.1
20260507023113 72 21 0.0 1.0 0.00 0.00 0.00 93 1015.3
20260507021600 72 21 0.0 1.0 0.00 0.00 0.00 93 1015.4
20260507020059 72 21 0.0 1.0 0.00 0.00 0.00 93 1015.6
20260507020002 72 21 0.0 1.0 0.00 0.00 0.00 93 1015.6
20260507014608 72 21 0.0 2.0 0.00 0.00 0.00 92 1015.5
20260507013114 72 21 0.0 2.0 0.00 0.00 0.00 92 1015.7
20260507011600 72 22 0.0 3.0 0.00 0.00 0.00 92 1015.8
20260507010059 73 23 1.0 3.0 0.00 0.00 0.00 91 1015.8
20260507010003 73 23 2.0 3.0 0.00 0.00 0.00 91 1015.8
20260507004559 73 53 1.0 3.0 0.00 0.00 0.00 91 1015.7
20260507003059 73 21 0.0 4.0 0.00 0.00 0.00 91 1015.9
20260507001621 73 18 1.0 4.0 0.00 0.00 0.00 90 1016.0
20260507000101 74 18 2.0 4.0 0.00 0.00 0.00 90 1015.9
20260507000007 74 16 2.0 4.0 0.00 0.00 0.00 90 1016.0
20260506234559 74 39 1.0 4.0 0.00 0.00 0.00 90 1016.0